Location: Newark
(58.8333°N, 23.5833°E)
Time: 00:00:10
(UTC+00:00)

Tiros 1 despin weight - Pass Details

Date: 18 November 2019
Orbit: 594 x 642 km, 48.2° (Epoch: 08 December)

Event Time Altitude Azimuth Distance (km) Brightness Sun altitude
Rises 12:22:16 0° 205° (SSW) 2,824 ? 7.4°
Reaches altitude 10° 12:25:56 10° 174° (S) 1,931 ? 7.1°
Maximum altitude 12:27:33 12° 152° (SSE) 1,817 ? 7.0°
Drops below altitude 10° 12:29:10 10° 130° (SE) 1,941 ? 6.9°
Sets 12:32:52 0° 99° (E) 2,858 ? 6.7°
